• Join FlightAware (Why Join?)
  • Login
  • US Flag 
08:10PM EDT


 

Airport Tracker/Info


-or-


 

Live Flight TrackerFlight Track Log ✈ SWA1521 ✈ 03-May-2013 ✈ KSMF - KLAX

Flight Track Log - Related Links

Times and Time Zones

All times are in EDT time to prevent confusion due to time zone crossing. See the SWA1521 flight status page for this flight to view local times or setup timezone preferences in your user account.

Time Position Orientation Groundspeed Altitude Reporting Facility
EDT Latitude Longitude Course Direction KTS MPH feet Rate Location/Type
11:44PM 38.6481 -121.4875 144° Southeast 274 315 8,100  Level Oakland Center
11:45PM 38.6039 -121.3994 123° Southeast 297 342 11,500 3,480 Climbing Oakland Center
11:46PM 38.5539 -121.3011 123° Southeast 325 374 15,200 3,300 Climbing Oakland Center
11:47PM 38.4961 -121.1914 124° Southeast 359 413 18,300 3,180 Climbing Oakland Center
11:49PM 38.4286 -121.0603 123° Southeast 390 449 21,700 2,460 Climbing Oakland Center
11:50PM 38.3642 -120.9358 123° Southeast 416 479 23,300 1,260 Climbing Oakland Center
11:51PM 38.2986 -120.8103 124° Southeast 425 489 24,300 1,260 Climbing Oakland Center
11:52PM 38.2292 -120.6850 125° Southeast 432 497 25,900 1,440 Climbing Oakland Center
11:53PM 38.1350 -120.5853 140° Southeast 437 503 27,300 1,320 Climbing Oakland Center
11:54PM 38.0378 -120.4906 142° Southeast 437 503 28,700 780 Climbing Oakland Center
11:55PM 37.9436 -120.4000 143° Southeast 427 491 29,000 120 Climbing Oakland Center
11:56PM 37.8475 -120.3061 142° Southeast 436 502 29,000 240 Level Oakland Center
11:57PM 37.7481 -120.2081 142° Southeast 448 516 29,500 660 Climbing Oakland Center
11:58PM 37.6461 -120.1072 142° Southeast 459 528 30,400 1,140 Climbing Oakland Center
11:59PM 37.5369 -120.0119 145° Southeast 472 543 31,900 1,980 Climbing Oakland Center
12:00AM 37.4133 -119.8939 143° Southeast 464 534 34,400 1,920 Climbing Oakland Center
12:01AM 37.3233 -119.8061 142° Southeast 464 534 35,900 1,260 Climbing Oakland Center
12:02AM 37.2211 -119.7075 142° Southeast 462 532 37,000 540 Climbing Oakland Center
12:03AM 37.1161 -119.6111 144° Southeast 466 536 37,000  Level Oakland Center
12:04AM 36.9975 -119.5981 175° South 432 497 37,000  Level Oakland Center
12:05AM 36.8747 -119.5986 180° South 438 504 37,000  Level Oakland Center
12:06AM 36.7239 -119.6003 181° South 444 511 37,000  Level Oakland Center
12:07AM 36.6008 -119.6044 182° South 441 507 37,000  Level Oakland Center
12:08AM 36.4758 -119.6044 180° South 448 516 37,000  Level Oakland Center
12:09AM 36.3531 -119.6061 181° South 441 507 37,000  Level Oakland Center
12:10AM 36.2286 -119.6083 181° South 444 511 37,000  Level Oakland Center
12:11AM 36.1044 -119.6103 181° South 444 511 37,000  Level Oakland Center
12:12AM 35.9803 -119.6153 182° South 445 512 37,000  Level Oakland Center
12:13AM 35.8553 -119.6206 182° South 449 517 37,000  Level Oakland Center
12:14AM 35.7269 -119.6242 181° South 458 527 37,000  Level Oakland Center
12:15AM 35.5989 -119.6200 178° South 462 532 37,000  Level Oakland Center
12:16AM 35.4764 -119.5611 159° South 470 541 37,000  Level Oakland Center
12:17AM 35.3575 -119.4981 157° South 465 535 37,000 -300 Level Oakland Center
12:18AM 35.2364 -119.4344 157° South 469 540 36,500 -720 Descending Oakland Center
12:19AM 35.1161 -119.3725 157° South 469 540 35,600 -1,800 Descending Oakland Center
12:20AM 34.9964 -119.3092 157° South 468 539 32,900 -3,000 Descending Oakland Center
12:21AM 34.8781 -119.2472 157° South 463 533 29,500 -3,060 Descending Oakland Center
12:22AM 34.7564 -119.1836 157° South 469 540 26,700 -3,000 Descending Oakland Center
12:23AM 34.6089 -119.0956 154° Southeast 465 535 23,200 -2,940 Descending Los Angeles Center
12:24AM 34.5106 -119.0103 144° Southeast 434 499 20,500 -2,640 Descending Los Angeles Center
12:25AM 34.4158 -118.9319 146° Southeast 414 476 17,800 -2,640 Descending Los Angeles Center
12:26AM 34.3197 -118.8669 151° Southeast 392 451 15,200 -2,400 Descending Los Angeles Center
12:27AM 34.2178 -118.8308 164° South 382 440 13,000 -1,860 Descending Los Angeles Center
12:28AM 34.1253 -118.7961 163° South 352 405 11,500 -1,500 Descending Los Angeles Center
12:29AM 34.0750 -118.6953 121° Southeast 322 371 10,000 -1,260 Descending Los Angeles Center
12:30AM 34.0469 -118.5939 108° East 297 342 9,000 -1,320 Descending Los Angeles Center
12:31AM 34.0222 -118.5028 108° East 287 330 7,300 -1,800 Descending Los Angeles Center
12:32AM 34.0083 -118.4161 101° East 281 323 5,400 -1,380 Descending Los Angeles Center
12:33AM 34.0167 -118.3358 83° East 254 292 4,600 -960 Descending Los Angeles Center
12:34AM 34.0194 -118.2667 87° East 220 253 3,500 -1,200 Descending Los Angeles Center
12:35AM 33.9764 -118.2764 191° South 194 223 2,200 -1,140 Descending Los Angeles Center
12:36AM 33.9594 -118.3233 246° West 170 196 1,300 -780 Descending Los Angeles Center
12:37AM 33.9569 -118.3694 266° West 150 173 700 -540 Descending Los Angeles Center
12:38AM 33.9519 -118.4164 263° West 142 163 200 -540 Descending Los Angeles Center
12:40AM 33.9425 -118.4081 228° Southwest  Level Estimated